STARLINK-1953 (47554 NORAD) Tracking and Keplerian Element Data

This shows tracking and keplerian element data for the satellite.

Feedback or suggestion? Click here.




ElementValue
Catalog47554
NameSTARLINK-1953
Epoch Orbit1166
Epoch Day106.25002315
Epoch Year2021
RAAN142.8092
Inclination53.0508
Eccentricity0.0002853
Argument of Perigee295.9833
Mean Anonmoly228.2056
Mean Motion15.33014843
Decay Rate-0.00484425
L11 47554U 21009G 21106.25002315 -.00484425 00000-0 -15951-1 0 9996
L22 47554 53.0508 142.8092 0002853 295.9833 228.2056 15.33014843 11662

Live tracking and technical data element details for STARLINK-1953 (NORAD 47554). STARLINK-1953 can be tracked NOW for your location showing map with azimuth and elevation plus other details from your city location.

Track the satellite on the map from your city or location and see movement details for azimuth, elevation, latitude, longitude, range, height, and movement on the map or in text.







IsCatalogInMostPopularTable: catalog: 47554, numindb: 16
Update: records affected: 1



GetName: 47554 STARLINK-1953

Hit Count: updated at: Fri, 16 Apr 2021 10:48:22 GMT